Stations météo

Publicité
Gourdon, France (7535): Température de l'air & dewpoint: 18.02.2020 21:00:00 - 24.02.2020 21:00:00 (CET)Gourdon, France (7535): Température de l'air 5cm: 18.02.2020 21:00:00 - 24.02.2020 21:00:00 (CET)Gourdon, France (7535): Température de l'air -20cm & Température de l'air -100cm: 18.02.2020 21:00:00 - 24.02.2020 21:00:00 (CET)Gourdon, France (7535): Vitesse du vent & gusts: 18.02.2020 21:00:00 - 24.02.2020 21:00:00 (CET)Gourdon, France (7535): Direction du vent: 18.02.2020 21:00:00 - 24.02.2020 21:00:00 (CET)Gourdon, France (7535): reduced air pressure: 18.02.2020 21:00:00 - 24.02.2020 21:00:00 (CET)Gourdon, France (7535): visibility: 18.02.2020 21:00:00 - 24.02.2020 21:00:00 (CET)Gourdon, France (7535): Ensoleillement: 18.02.2020 21:00:00 - 24.02.2020 21:00:00 (CET)Gourdon, France (7535): Quantités de précipitations: 18.02.2020 21:00:00 - 24.02.2020 21:00:00 (CET)
Date & Time tt [°C] td [°C] tt 5cm [°C] tt -20cm [°C] tt -100cm [°C] ff [km/h] ff [knt] fx [km/h] fx [knt] dd ppp [hPa] vv [km] sd [min] rr [mm]
24.02.2020 21:00:00 9,5 3,7 2,1 9,7 10,0 5 3 13 7 WNW 1022,0 17 0 0,0
24.02.2020 20:00:00 10,7 2,5 3,0 9,7 10,0 2 1 9 5 WSW 1021,6 13 0 0,0
24.02.2020 19:00:00 12,6 1,9 4,9 9,7 10,0 4 2 13 7 WSW 1021,5 20 0 0,0
24.02.2020 18:00:00 15,4 3,2 12,4 9,5 10,0 8 4 20 11 SSW 1020,9 20 37 0,0
24.02.2020 17:00:00 18,0 2,7 22,9 9,3 10,1 10 6 20 11 SW 1021,2 20 60 0,0
24.02.2020 16:00:00 18,3 6,2 25,7 8,9 10,0 6 4 13 7 S 1021,9 20 60 0,0
24.02.2020 15:00:00 18,1 5,6 25,3 8,7 10,1 5 3 14 8 SW 1023,0 20 60 0,0
24.02.2020 14:00:00 16,2 8,2 25,2 8,4 10,1 3 2 12 6 WNW 1024,3 20 60 0,0
24.02.2020 13:00:00 13,5 9,3 21,9 8,1 10,0 5 3 11 6 NNW 1026,0 20 60 0,0
24.02.2020 12:00:00 9,3 7,4 18,1 8,0 10,1 4 2 7 4 WNW 1027,3 18 60 0,0
24.02.2020 11:00:00 7,1 7,0 7,0 8,0 10,1 0 0 5 3 N 1028,4 2,2 37 0,0
24.02.2020 10:00:00 3,8 3,5 4,3 8,1 10,0 0 0 4 2 N 1029,3 0,1 26 0,0
24.02.2020 09:00:00 1,5 1,2 0,1 8,2 10,0 0 0 4 2 N 1029,8 0,1 18 0,0
24.02.2020 08:00:00 0,5 0,1 -0,4 8,3 10,0 0 0 3 2 N 1029,9 0,4 0 0,0
24.02.2020 07:00:00 1,2 0,6 -0,7 8,4 10,0 0 0 3 2 N 1030,1 0,5 0 0,0
24.02.2020 06:00:00 2,7 2,4 -0,3 8,5 10,0 2 1 8 5 E 1030,2 0,2 0 0,0
24.02.2020 05:00:00 2,1 1,7 0,0 8,7 10,0 6 3 9 5 ESE 1030,9 1,7 0 0,0
24.02.2020 04:00:00 2,7 2,3 -0,5 8,8 10,0 3 2 6 3 ESE 1031,3 2,7 0 0,0
24.02.2020 03:00:00 3,3 2,9 0,4 9,0 10,0 2 1 4 2 ESE 1032,0 3,3 0 0,0
24.02.2020 02:00:00 3,9 3,3 0,6 9,1 10,1 0 0 5 3 N 1032,6 6 0 0,0
24.02.2020 01:00:00 3,7 2,8 1,2 9,2 10,0 4 2 11 6 SE 1033,0 6 0 0,0
24.02.2020 00:00:00 4,5 3,8 1,9 9,4 10,0 9 5 11 6 SE 1033,3 8 0 0,0
23.02.2020 23:00:00 4,9 3,9 2,5 9,5 10,1 7 4 9 5 SE 1033,6 12 0 0,0
23.02.2020 22:00:00 6,5 5,0 1,7 9,6 10,0 3 2 7 4 S 1033,8 17 0 0,0
23.02.2020 21:00:00 8,0 6,0 3,2 9,6 10,0 5 3 11 6 SW 1033,2 20 0 0,0
23.02.2020 20:00:00 9,2 6,6 4,2 9,6 10,0 4 2 10 6 W 1033,2 20 0 0,0
23.02.2020 19:00:00 10,8 6,9 7,9 9,6 10,1 5 3 19 10 W 1032,9 20 0 0,0
23.02.2020 18:00:00 14,5 6,8 13,0 9,4 10,1 8 4 15 8 NW 1032,0 20 36 0,0
23.02.2020 17:00:00 17,3 5,9 24,5 9,1 10,0 8 4 14 8 WNW 1031,4 20 60 0,0
23.02.2020 16:00:00 17,7 6,8 26,5 8,8 10,1 6 4 15 8 WNW 1031,2 20 60 0,0
23.02.2020 15:00:00 17,5 6,1 24,3 8,5 10,1 4 2 16 8 W 1031,8 20 60 0,0
23.02.2020 14:00:00 17,0 7,1 22,8 8,2 10,1 7 4 19 10 SW 1032,2 20 60 0,0
23.02.2020 13:00:00 15,6 7,4 22,3 8,0 10,1 6 4 15 8 SW 1033,4 20 60 0,0
23.02.2020 12:00:00 14,0 6,8 18,4 7,9 10,1 6 3 12 7 WSW 1034,0 20 60 0,0
23.02.2020 11:00:00 11,1 5,0 17,4 7,8 10,1 6 3 11 6 SSW 1034,2 20 60 0,0
23.02.2020 10:00:00 8,8 4,4 9,5 7,9 10,1 2 1 4 2 ESE 1034,8 20 60 0,0
23.02.2020 09:00:00 4,4 2,9 -0,8 8,1 10,1 4 2 7 4 N 1035,2 9 55 0,0
23.02.2020 08:00:00 0,9 -0,1 -1,3 8,2 10,1 5 3 6 3 SSW 1035,0 15 0 0,0
23.02.2020 07:00:00 2,4 1,1 -1,0 8,3 10,1 0 0 7 4 N 1034,6 20 0 0,0
23.02.2020 06:00:00 2,9 1,7 0,2 8,4 10,1 0 0 9 5 N 1034,2 20 0 0,0
23.02.2020 05:00:00 2,9 1,7 1,4 8,5 10,1 9 5 13 7 ESE 1034,1 20 0 0,0
23.02.2020 04:00:00 3,8 2,6 1,2 8,6 10,1 9 5 12 7 ESE 1034,4 20 0 0,0
23.02.2020 03:00:00 4,0 2,2 0,6 8,7 10,1 7 4 13 7 ESE 1034,8 20 0 0,0
23.02.2020 02:00:00 3,6 2,0 1,8 8,9 10,1 6 3 13 7 SE 1035,3 20 0 0,0
23.02.2020 01:00:00 4,8 1,6 2,0 9,0 10,1 6 3 13 7 ESE 1035,6 20 0 0,0
23.02.2020 00:00:00 4,1 1,1 2,0 9,1 10,1 6 3 13 7 SE 1035,8 20 0 0,0
22.02.2020 23:00:00 5,4 1,5 1,7 9,2 10,1 11 6 15 8 SE 1036,0 20 0 0,0
22.02.2020 22:00:00 5,0 1,5 2,3 9,4 10,1 6 3 12 6 SE 1036,0 20 0 0,0
22.02.2020 21:00:00 6,4 2,1 2,8 9,5 10,1 5 3 9 5 SSE 1035,6 20 0 0,0
22.02.2020 20:00:00 10,1 1,7 2,9 9,5 10,0 5 3 8 4 NNW 1035,3 20 0 0,0
22.02.2020 19:00:00 12,3 1,6 5,5 9,4 10,1 4 2 11 6 NW 1033,8 20 0 0,0
22.02.2020 18:00:00 14,3 2,8 11,1 9,2 10,1 4 2 7 4 WNW 1033,0 20 32 0,0
22.02.2020 17:00:00 15,8 3,6 24,4 9,0 10,1 5 3 11 6 NNW 1032,8 20 60 0,0
22.02.2020 16:00:00 15,4 3,2 23,2 8,8 10,1 8 4 13 7 N 1032,8 20 60 0,0
22.02.2020 15:00:00 14,8 3,3 24,1 8,5 10,1 8 4 16 8 NNW 1032,6 20 60 0,0
22.02.2020 14:00:00 14,5 3,6 22,1 8,2 10,1 7 4 17 9 NNW 1033,1 20 60 0,0
22.02.2020 13:00:00 13,4 4,0 21,5 8,0 10,1 5 3 14 8 SSW 1033,1 20 60 0,0
22.02.2020 12:00:00 11,6 3,9 18,6 7,9 10,1 5 3 12 7 NW 1034,6 20 60 0,0
22.02.2020 11:00:00 10,4 3,7 14,7 8,0 10,1 8 4 11 6 S 1033,7 20 60 0,0
22.02.2020 10:00:00 5,7 2,2 6,8 8,1 10,1 3 2 16 9 SSE 1034,9 20 60 0,0
22.02.2020 09:00:00 2,8 1,2 -1,2 8,2 10,1 3 2 10 5 NNW 1034,5 20 53 0,0
22.02.2020 08:00:00 -0,4 -1,2 -2,0 8,4 10,1 8 4 9 5 SE 1033,7 20 0 0,0
22.02.2020 07:00:00 0,4 -0,3 -2,1 8,5 10,1 0 0 10 6 N 1033,2 20 0 0,0
22.02.2020 06:00:00 0,1 -1,0 -1,7 8,7 10,1 6 4 9 5 SE 1032,8 20 0 0,0
22.02.2020 05:00:00 2,0 0,4 -1,1 8,8 10,1 3 1 9 5 NNW 1032,4 20 0 0,0
22.02.2020 04:00:00 2,1 0,0 -0,9 9,0 10,1 3 1 12 6 NNE 1032,1 20 0 0,0
22.02.2020 03:00:00 1,4 -0,2 -0,1 9,1 10,0 9 5 12 7 ESE 1032,2 20 0 0,0
22.02.2020 02:00:00 2,6 0,3 0,6 9,3 10,0 7 4 10 5 SE 1032,9 20 0 0,0
22.02.2020 01:00:00 3,0 0,7 0,5 9,5 10,0 8 4 10 6 SE 1032,9 20 0 0,0
22.02.2020 00:00:00 2,5 0,7 1,0 9,6 10,0 8 4 11 6 SSE 1032,9 20 0 0,0
21.02.2020 23:00:00 4,3 1,3 2,1 9,8 10,0 8 4 10 6 SE 1032,9 20 0 0,0
21.02.2020 22:00:00 5,2 1,5 2,1 9,9 10,0 3 1 8 5 SSW 1032,6 20 0 0,0
21.02.2020 21:00:00 5,3 2,1 2,7 10,0 10,0 4 2 6 3 S 1032,4 20 0 0,0
21.02.2020 20:00:00 8,4 2,0 2,7 10,0 10,0 2 1 6 3 W 1031,8 20 0 0,0
21.02.2020 19:00:00 9,9 1,5 4,4 10,0 10,0 4 2 9 5 W 1031,2 20 7 0,0
21.02.2020 18:00:00 12,1 2,5 10,9 10,0 10,1 4 2 14 8 NW 1030,8 20 40 0,0
21.02.2020 17:00:00 13,8 3,5 19,6 9,8 10,0 4 2 13 7 NW 1030,8 20 60 0,0
21.02.2020 16:00:00 13,3 3,9 20,0 9,6 10,0 6 4 18 10 NNW 1031,2 20 60 0,0
21.02.2020 15:00:00 12,9 4,1 18,7 9,3 10,0 6 3 19 10 N 1031,3 20 52 0,0
21.02.2020 14:00:00 12,2 3,7 20,4 9,1 10,0 8 4 18 10 NNE 1031,6 20 57 0,0
21.02.2020 13:00:00 12,9 4,3 11,6 8,9 10,0 7 4 19 10 WSW 1032,3 20 49 0,2
21.02.2020 12:00:00 11,3 6,2 10,1 8,8 10,0 6 3 18 10 WNW 1032,5 20 33 0,0
21.02.2020 11:00:00 9,8 6,7 10,9 8,7 10,0 5 3 12 7 NW 1032,8 20 31 0,0
21.02.2020 10:00:00 8,4 7,6 8,6 8,7 10,0 4 2 9 5 NW 1032,4 13 2 0,0
21.02.2020 09:00:00 8,1 7,7 7,9 8,7 10,0 3 1 9 5 WNW 1032,3 4,8 0 0,0
21.02.2020 08:00:00 7,9 7,5 7,6 8,7 10,0 0 0 3 2 N 1031,7 0,5 0 0,0
21.02.2020 07:00:00 7,8 7,4 7,5 8,7 10,0 0 0 3 2 N 1031,5 1,2 0 0,0
21.02.2020 06:00:00 7,9 7,5 7,6 8,7 10,0 3 1 7 4 WSW 1031,0 2,2 0 0,0
21.02.2020 05:00:00 7,7 7,3 7,2 8,7 10,0 3 2 8 4 SW 1030,6 2,3 0 0,0
21.02.2020 04:00:00 7,4 6,8 7,0 8,7 10,0 3 2 5 3 S 1030,7 0,5 0 0,0
21.02.2020 03:00:00 7,4 6,3 6,9 8,7 10,0 0 0 8 5 N 1031,0 1,6 0 0,6
21.02.2020 02:00:00 7,4 5,2 6,4 8,8 10,1 4 2 8 5 SSW 1031,0 15 0 0,0
21.02.2020 01:00:00 6,6 3,7 5,8 8,8 10,0 3 2 8 5 SW 1030,9 20 0 0,0
21.02.2020 00:00:00 6,4 2,8 5,2 8,9 10,0 3 2 10 6 SSW 1030,6 20 0 0,0
20.02.2020 23:00:00 8,1 3,5 1,7 9,1 10,1 6 3 14 8 WNW 1030,0 20 0 0,0
20.02.2020 22:00:00 8,0 2,7 1,9 9,1 10,1 6 3 11 6 W 1029,1 20 0 0,0
20.02.2020 21:00:00 8,7 2,7 2,8 9,2 10,1 4 2 17 9 W 1028,1 20 0 0,0
20.02.2020 20:00:00 9,9 3,0 3,4 9,2 10,0 6 3 13 7 W 1027,8 20 0 0,0
20.02.2020 19:00:00 10,9 2,5 4,3 9,2 10,1 4 2 14 8 W 1026,2 20 0 0,0
20.02.2020 18:00:00 13,5 3,0 11,4 9,0 10,1 6 4 19 11 WNW 1025,0 20 29 0,0
20.02.2020 17:00:00 15,7 1,0 20,2 8,8 10,1 11 6 24 13 W 1024,0 20 60 0,0
20.02.2020 16:00:00 16,6 2,9 23,4 8,5 10,1 8 5 20 11 W 1023,8 20 60 0,0
20.02.2020 15:00:00 16,0 3,7 22,3 8,2 10,1 9 5 18 10 WSW 1023,9 20 60 0,0
20.02.2020 14:00:00 15,5 5,4 21,3 8,0 10,1 7 4 18 10 SW 1023,8 20 60 0,0
20.02.2020 13:00:00 14,0 5,4 19,7 7,8 10,1 5 3 15 8 SW 1024,3 20 60 0,0
20.02.2020 12:00:00 11,6 6,5 16,3 7,7 10,1 8 5 14 8 SSE 1025,1 20 60 0,0
20.02.2020 11:00:00 8,1 4,9 14,1 7,7 10,1 4 2 9 5 W 1025,8 20 60 0,0
20.02.2020 10:00:00 7,0 4,8 6,4 7,8 10,1 3 2 8 4 ESE 1025,9 20 60 0,0
20.02.2020 09:00:00 4,2 3,8 -1,0 7,9 10,1 3 1 10 6 SE 1025,8 18 50 0,0
20.02.2020 08:00:00 2,1 1,4 -1,3 8,0 10,1 5 3 8 4 SSE 1025,7 10 0 0,0
20.02.2020 07:00:00 3,5 2,9 -0,3 8,2 10,1 5 3 10 5 ESE 1025,4 20 0 0,0
20.02.2020 06:00:00 3,4 2,8 0,2 8,3 10,1 6 4 12 6 ESE 1025,5 20 0 0,0
20.02.2020 05:00:00 4,4 4,0 0,4 8,4 10,1 8 5 14 7 ESE 1025,6 20 0 0,0
20.02.2020 04:00:00 2,5 2,1 0,9 8,5 10,1 8 5 11 6 ESE 1026,4 11 0 0,0
20.02.2020 03:00:00 2,6 2,0 0,4 8,6 10,1 9 5 11 6 ESE 1027,1 12 0 0,0
20.02.2020 02:00:00 3,7 3,3 1,3 8,7 10,1 8 4 12 6 ESE 1027,7 19 0 0,0
20.02.2020 01:00:00 3,5 3,1 1,1 8,8 10,1 8 4 11 6 SE 1028,3 16 0 0,0
20.02.2020 00:00:00 4,1 3,5 2,0 9,0 10,1 9 5 13 7 SE 1028,6 20 0 0,0
19.02.2020 23:00:00 4,3 3,3 2,1 9,1 10,1 5 3 9 5 SE 1029,2 20 0 0,0
19.02.2020 22:00:00 4,6 3,4 2,1 9,2 10,1 6 3 9 5 SE 1029,6 10 0 0,0
19.02.2020 21:00:00 6,3 4,3 3,3 9,2 10,1 4 2 8 5 SSE 1029,7 19 0 0,0
19.02.2020 20:00:00 7,2 4,7 3,5 9,3 10,1 4 2 9 5 SSE 1030,1 20 0 0,0
19.02.2020 19:00:00 8,6 5,0 4,3 9,3 10,1 3 2 12 6 SW 1030,0 20 0 0,0
19.02.2020 18:00:00 10,6 5,4 9,5 9,2 10,1 6 4 15 8 WSW 1029,6 20 10 0,0
19.02.2020 17:00:00 11,4 5,5 11,8 9,0 10,1 9 5 18 10 W 1029,7 20 7 0,0
19.02.2020 16:00:00 11,3 5,6 12,4 8,8 10,2 6 3 21 12 W 1030,2 20 0 0,0
19.02.2020 15:00:00 11,5 6,2 13,4 8,6 10,1 8 4 24 13 W 1030,6 20 11 0,0
19.02.2020 14:00:00 11,7 6,8 13,3 8,4 10,1 8 5 20 11 W 1031,1 20 21 0,0
19.02.2020 13:00:00 11,1 7,2 11,4 8,3 10,1 7 4 19 10 W 1032,1 20 22 0,0
19.02.2020 12:00:00 9,4 7,3 8,3 8,2 10,2 8 5 21 12 W 1033,1 20 3 0,0
19.02.2020 11:00:00 7,5 6,8 7,7 8,2 10,2 6 3 17 9 WSW 1033,7 15 0 0,0
19.02.2020 10:00:00 6,6 6,2 6,4 8,2 10,2 5 3 15 8 SW 1033,6 18 0 0,0
19.02.2020 09:00:00 5,9 5,5 5,0 8,2 10,2 7 4 17 9 SW 1033,3 14 6 0,0
19.02.2020 08:00:00 5,0 4,6 4,5 8,2 10,2 6 3 11 6 SSW 1033,0 14 0 0,2
19.02.2020 07:00:00 4,6 4,2 2,0 8,4 10,2 3 1 9 5 SW 1032,8 10 0 0,0
19.02.2020 06:00:00 3,8 3,4 0,2 8,5 10,2 4 2 9 5 SSW 1032,5 10 0 0,0
19.02.2020 05:00:00 3,9 3,3 0,9 8,5 10,2 3 1 10 6 SW 1032,5 16 0 0,0
19.02.2020 04:00:00 3,8 3,2 2,0 8,6 10,2 6 3 14 7 SSW 1032,6 19 0 0,0
19.02.2020 03:00:00 4,0 3,6 1,3 8,7 10,2 3 2 12 6 SW 1032,9 20 0 0,0
19.02.2020 02:00:00 3,2 2,6 0,7 8,9 10,2 5 3 12 6 SW 1033,3 19 0 0,0
19.02.2020 01:00:00 3,7 2,7 0,4 9,0 10,2 4 2 13 7 SW 1033,9 20 0 0,0
19.02.2020 00:00:00 4,1 3,4 1,2 9,0 10,2 4 2 10 6 SW 1034,2 17 0 0,0
18.02.2020 23:00:00 5,2 3,8 2,4 9,1 10,2 4 2 12 6 SSW 1033,9 20 0 0,0
18.02.2020 22:00:00 6,4 5,0 5,2 9,1 10,2 4 2 17 9 S 1033,6 20 0 0,0
18.02.2020 21:00:00 6,7 5,3 5,9 9,1 10,2 10 5 24 13 W 1033,9 12 0 0,4

tt = Température de l'air
td = dewpoint
tt 5cm = Température de l'air 5cm
tt -20cm = Température de l'air -20cm
tt -100cm = Température de l'air -100cm
ff = Vitesse du vent
fx = gusts
dd = Direction du vent
ppp = reduced air pressure
vv = visibility
sd = Ensoleillement
rr = Quantités de précipitations

stations d'obs. à proximité